Latest Weather Observations for Eildon Fire Tower

IDV60801

Issued at 5:31 pm EDT Wednesday 10 February 2016 (issued every 30 minutes, with the page automatically refreshed every 10 minutes)

About weather observations | Map of weather stations | Latest weather observations for VIC | Other Formats
Station Details ID: 088164 Name: EILDON FIRE TOWER Lat: -37.21 Lon: 145.84 Height: 637.0 m
Data from the previous 72 hours. | See also: Recent months at Eildon Fire Tower
Date/Time
EDT
Temp
°C
App
Temp
°C
Dew
Point
Rel
Hum
%
Delta-T
°C
Wind Press
QNH
hPa
Press
MSL
hPa
Rain
since 9 am
mm
Dir
 
Spd
km/h
Gust
km/h
Spd
kts
Gust
kts
10/05:30pm 27.0 20.7 5.9 26 11.3 WSW 28 41 15 22 - - 0.0
10/05:00pm 27.1 22.4 6.0 26 11.3 WSW 20 32 11 17 - - 0.0
10/04:30pm 28.0 24.5 8.8 30 10.8 WSW 17 24 9 13 - - 0.0
10/04:00pm 27.8 24.5 9.6 32 10.4 WSW 17 26 9 14 - - 0.0
10/03:30pm 27.7 24.1 10.0 33 10.2 WSW 19 28 10 15 - - 0.0
10/03:00pm 27.3 24.5 11.3 37 9.4 WSW 17 28 9 15 - - 0.0
10/02:30pm 26.3 23.4 9.6 35 9.5 W 15 24 8 13 - - 0.0
10/02:00pm 25.1 22.3 11.3 42 8.0 W 17 22 9 12 - - 0.0
10/01:30pm 25.1 23.2 13.0 47 7.2 W 15 20 8 11 - - 0.0
10/01:00pm 24.2 22.4 13.4 51 6.5 W 15 20 8 11 - - 0.0
10/12:30pm 23.3 22.4 13.8 55 5.7 W 11 19 6 10 - - 0.0
10/12:00pm 22.9 22.4 13.7 56 5.5 WSW 9 15 5 8 - - 0.0
10/11:30am 21.6 21.1 13.8 61 4.7 WSW 9 13 5 7 - - 0.0
10/11:00am 20.1 19.6 13.8 67 3.7 WSW 9 13 5 7 - - 0.0
10/10:30am 18.8 18.0 14.1 74 2.8 W 11 13 6 7 - - 0.0
10/10:00am 17.5 17.5 13.6 78 2.3 WSW 6 9 3 5 - - 0.0
10/09:30am 16.4 16.2 13.7 84 1.6 WSW 7 11 4 6 - - 0.0
10/09:00am 18.4 18.2 13.5 73 2.9 ENE 7 9 4 5 - - 0.0
10/08:30am 19.5 19.9 13.7 69 3.4 ESE 4 6 2 3 - - 0.0
10/08:00am 17.3 16.2 13.0 76 2.5 E 11 13 6 7 - - 0.0
10/07:30am 17.1 16.6 12.8 76 2.5 SE 7 9 4 5 - - 0.0
10/07:00am 16.5 15.5 11.0 70 3.0 SE 7 13 4 7 - - 0.0
10/06:30am 14.9 14.4 12.0 83 1.6 SSE 6 9 3 5 - - 0.0
10/06:00am 15.9 15.5 12.3 79 2.0 SSE 6 7 3 4 - - 0.0
10/05:30am 14.6 13.7 12.6 88 1.1 S 9 11 5 6 - - 0.0
10/05:00am 17.3 16.8 12.2 72 2.9 SSE 6 7 3 4 - - 0.0
10/04:30am 16.6 16.8 12.9 79 2.1 S 4 4 2 2 - - 0.0
10/04:00am 15.8 16.0 13.1 84 1.5 S 4 6 2 3 - - 0.0
10/03:30am 15.4 15.2 12.9 85 1.4 WSW 6 7 3 4 - - 0.0
10/03:00am 17.9 18.7 13.6 76 2.5 SW 2 6 1 3 - - 0.0
10/02:30am 18.6 18.3 12.8 69 3.4 SW 6 6 3 3 - - 0.0
10/02:00am 18.9 18.9 13.5 71 3.2 SSE 6 7 3 4 - - 0.0
10/01:30am 17.7 16.5 12.8 73 2.8 SSW 11 15 6 8 - - 0.0
10/01:00am 20.3 19.1 12.8 62 4.4 SSE 11 17 6 9 - - 0.0
10/12:30am 20.5 19.7 13.0 62 4.4 SE 9 17 5 9 - - 0.0
10/12:00am 20.9 18.9 12.8 60 4.7 ESE 15 17 8 9 - - 0.0
 
Date/Time
EDT
Temp
°C
App
Temp
°C
Dew
Point
Rel
Hum
%
Delta-T
°C
Wind Press
QNH
hPa
Press
MSL
hPa
Rain
since 9 am
mm
Dir
 
Spd
km/h
Gust
km/h
Spd
kts
Gust
kts
09/11:30pm 21.0 19.8 12.9 60 4.7 ESE 11 13 6 7 - - 0.0
09/11:00pm 21.3 20.2 13.2 60 4.8 E 11 15 6 8 - - 0.0
09/10:30pm 21.8 21.7 13.2 58 5.1 WSW 6 9 3 5 - - 0.0
09/10:00pm 20.7 19.3 13.4 63 4.3 WSW 13 15 7 8 - - 0.0
09/09:30pm 21.5 19.0 13.4 60 4.8 WSW 19 20 10 11 - - 0.0
09/09:00pm 22.1 19.2 12.9 56 5.4 WSW 20 22 11 12 - - 0.0
09/08:30pm 23.3 21.1 13.2 53 6.0 WSW 17 20 9 11 - - 0.0
09/08:00pm 24.9 22.0 12.8 47 7.2 WSW 20 28 11 15 - - 0.0
09/07:30pm 26.3 23.0 11.6 40 8.6 SW 20 28 11 15 - - 0.0
09/07:00pm 28.9 25.6 4.4 21 12.9 W 11 17 6 9 - - 0.0
09/06:30pm 29.2 25.9 6.6 24 12.4 WSW 13 17 7 9 - - 0.0
09/06:00pm 28.3 25.8 8.1 28 11.3 SSW 11 17 6 9 - - 0.0
09/05:30pm 29.3 26.3 9.4 29 11.4 WSW 15 20 8 11 - - 0.0
09/05:00pm 29.3 27.6 9.9 30 11.2 SW 9 22 5 12 - - 0.0
09/04:30pm 29.8 28.3 11.8 33 10.8 SW 11 17 6 9 - - 0.0
09/04:00pm 29.6 27.9 11.2 32 10.9 WSW 11 17 6 9 - - 0.0
09/03:30pm 28.1 26.4 11.2 35 9.9 W 11 19 6 10 - - 0.0
09/03:00pm 28.3 26.8 10.5 33 10.3 WSW 9 20 5 11 - - 0.0
09/02:30pm 27.1 24.8 10.3 35 9.7 WSW 13 20 7 11 - - 0.0
09/02:00pm 27.5 25.7 10.7 35 9.8 WSW 11 15 6 8 - - 0.0
09/01:30pm 27.2 26.5 11.3 37 9.3 WSW 6 26 3 14 - - 0.0
09/01:00pm 26.8 25.7 10.1 35 9.6 NE 6 9 3 5 - - 0.0
09/12:30pm 26.4 24.7 9.7 35 9.5 ENE 9 17 5 9 - - 0.0
09/12:00pm 25.3 23.6 10.0 38 8.7 NE 9 17 5 9 - - 0.0
09/11:30am 24.6 22.5 9.7 39 8.4 ENE 11 15 6 8 - - 0.0
09/11:00am 23.2 21.8 9.6 42 7.6 ENE 7 9 4 5 - - 0.0
09/10:30am 21.8 20.6 9.7 46 6.7 E 6 9 3 5 - - 0.0
09/10:00am 20.3 18.3 6.3 40 7.2 E 6 11 3 6 - - 0.0
09/09:30am 19.1 17.0 6.6 44 6.5 E 7 11 4 6 - - 0.0
09/09:00am 17.9 15.4 6.7 48 5.8 E 9 11 5 6 - - 0.0
09/08:30am 17.4 14.5 4.7 43 6.3 SE 9 13 5 7 - - 0.0
09/08:00am 15.9 13.6 5.5 50 5.1 E 7 9 4 5 - - 0.0
09/07:30am 14.7 12.4 5.8 55 4.4 SE 7 11 4 6 - - 0.0
09/07:00am 13.7 10.4 4.6 54 4.4 ESE 11 15 6 8 - - 0.0
09/06:30am 12.8 10.3 4.5 57 3.9 ESE 7 9 4 5 - - 0.0
09/06:00am 13.1 10.2 4.5 56 4.1 SE 9 11 5 6 - - 0.0
09/05:30am 13.9 11.1 5.3 56 4.2 SSE 9 15 5 8 - - 0.0
09/05:00am 13.4 11.5 6.5 63 3.4 WSW 6 7 3 4 - - 0.0
09/04:30am 13.0 11.2 7.9 71 2.6 WSW 7 11 4 6 - - 0.0
09/04:00am 14.4 11.2 5.0 53 4.6 SSE 11 19 6 10 - - 0.0
09/03:30am 15.3 11.0 3.5 45 5.6 SE 15 26 8 14 - - 0.0
09/03:00am 14.9 10.8 4.6 50 5.0 SE 15 24 8 13 - - 0.0
09/02:30am 14.1 11.4 7.2 63 3.5 SSE 11 19 6 10 - - 0.0
09/02:00am 15.8 12.8 6.0 52 4.9 SSE 11 22 6 12 - - 0.0
09/01:30am 13.6 12.5 10.0 79 1.9 SW 6 9 3 5 - - 0.0
09/01:00am 15.4 11.9 7.2 58 4.2 S 15 22 8 12 - - 0.0
09/12:30am 14.7 13.0 9.7 72 2.7 SSW 9 13 5 7 - - 0.0
09/12:00am 14.9 13.4 10.7 76 2.3 SW 9 13 5 7 - - 0.0
 
Date/Time
EDT
Temp
°C
App
Temp
°C
Dew
Point
Rel
Hum
%
Delta-T
°C
Wind Press
QNH
hPa
Press
MSL
hPa
Rain
since 9 am
mm
Dir
 
Spd
km/h
Gust
km/h
Spd
kts
Gust
kts
08/11:30pm 16.2 15.1 9.8 66 3.5 SSW 6 9 3 5 - - 0.0
08/11:00pm 15.7 14.8 11.3 75 2.4 W 7 7 4 4 - - 0.0
08/10:30pm 16.1 14.4 11.3 73 2.7 W 11 13 6 7 - - 0.0
08/10:00pm 16.8 14.3 11.1 69 3.2 W 15 17 8 9 - - 0.0
08/09:30pm 17.6 15.8 10.9 65 3.7 W 11 15 6 8 - - 0.0
08/09:00pm 18.4 15.4 10.8 61 4.2 WSW 17 20 9 11 - - 0.0
08/08:30pm 19.6 16.4 11.1 58 4.8 WSW 19 24 10 13 - - 0.0
08/08:00pm 21.1 16.1 10.9 52 5.8 WSW 28 37 15 20 - - 0.0
08/07:30pm 22.6 19.5 11.7 50 6.3 WSW 19 33 10 18 - - 0.0
08/07:00pm 23.3 18.5 11.7 48 6.7 WSW 28 41 15 22 - - 0.0
08/06:30pm 23.8 18.1 11.8 47 7.0 W 33 43 18 23 - - 0.0
08/06:00pm 24.6 19.7 11.2 43 7.7 W 28 37 15 20 - - 0.0
08/05:30pm 26.0 19.7 5.6 27 10.8 W 28 41 15 22 - - 0.0
08/05:00pm 27.0 22.2 8.9 32 10.2 WSW 24 33 13 18 - - 0.0
08/04:30pm 26.7 22.6 11.6 39 8.9 WSW 24 35 13 19 - - 0.0
08/04:00pm 27.0 22.3 10.7 36 9.5 WSW 26 35 14 19 - - 0.0
08/03:30pm 27.3 22.6 9.2 32 10.3 WSW 24 39 13 21 - - 0.0
08/03:00pm 27.0 24.0 13.7 44 8.1 WSW 22 32 12 17 - - 0.0
08/02:30pm 26.9 24.1 13.3 43 8.2 WSW 20 30 11 16 - - 0.0
08/02:00pm 26.9 23.8 10.2 35 9.6 WSW 17 24 9 13 - - 0.0
08/01:30pm 25.7 23.9 13.2 46 7.5 W 15 24 8 13 - - 0.0
08/01:00pm 25.3 23.7 13.8 49 7.0 WSW 15 19 8 10 - - 0.0
08/12:30pm 24.3 22.5 14.4 54 6.0 WSW 17 22 9 12 - - 0.0
08/12:00pm 23.6 21.4 14.9 58 5.3 WSW 20 26 11 14 - - 0.0
08/11:30am 22.6 21.5 14.4 60 5.0 W 13 19 7 10 - - 0.0
08/11:00am 21.2 20.0 14.1 64 4.2 W 13 19 7 10 - - 0.0
08/10:30am 19.9 19.2 14.3 70 3.3 W 11 17 6 9 - - 0.0
08/10:00am 18.9 18.9 14.2 74 2.8 WSW 7 9 4 5 - - 0.0
08/09:30am 17.8 17.8 14.1 79 2.2 WSW 7 9 4 5 - - 0.0
08/09:00am 17.0 17.1 13.9 82 1.8 WSW 6 7 3 4 - - 0.0
08/08:30am 16.8 17.5 13.5 81 1.9 S 2 4 1 2 - - 0.0
08/08:00am 15.7 16.2 14.1 90 0.9 S 4 6 2 3 - - 0.0
08/07:30am 15.4 15.6 13.2 87 1.3 SSE 4 6 2 3 - - 0.0
08/07:00am 15.5 15.4 13.2 86 1.3 SSE 6 9 3 5 - - 0.0
08/06:30am 15.3 16.0 13.5 89 1.0 WSW 2 4 1 2 - - 0.0
08/06:00am 14.8 14.9 13.8 94 0.6 WSW 6 7 3 4 - - 0.0
08/05:30am 15.0 14.8 13.5 91 0.9 WSW 7 9 4 5 - - 0.0
08/05:00am 15.6 15.3 13.3 86 1.3 W 7 9 4 5 - - 0.0
08/04:30am 15.9 15.0 12.6 81 1.9 W 9 9 5 5 - - 0.0
08/04:00am 16.7 15.7 12.3 75 2.5 WSW 9 9 5 5 - - 0.0
08/03:30am 17.3 16.6 12.0 71 3.0 WSW 7 9 4 5 - - 0.0
08/03:00am 17.3 15.5 12.2 72 2.9 W 13 15 7 8 - - 0.0
08/02:30am 18.3 17.7 11.8 66 3.7 WSW 6 9 3 5 - - 0.0
08/02:00am 20.6 20.8 11.8 57 5.0 WSW 2 2 1 1 - - 0.0
08/01:30am 19.8 19.2 11.8 60 4.6 WSW 6 7 3 4 - - 0.0
08/01:00am 20.5 20.5 12.5 60 4.6 SSW 4 6 2 3 - - 0.0
08/12:30am 21.6 21.0 11.6 53 5.7 SE 6 9 3 5 - - 0.0
08/12:00am 22.1 21.7 11.2 50 6.2 SSE 4 6 2 3 - - 0.0
 
Date/Time
EDT
Temp
°C
App
Temp
°C
Dew
Point
Rel
Hum
%
Delta-T
°C
Wind Press
QNH
hPa
Press
MSL
hPa
Rain
since 9 am
mm
Dir
 
Spd
km/h
Gust
km/h
Spd
kts
Gust
kts
07/11:30pm 21.6 20.7 12.7 57 5.2 SW 9 13 5 7 - - 0.0
07/11:00pm 23.1 21.6 11.8 49 6.6 SSW 11 15 6 8 - - 0.0
07/10:30pm 23.4 21.2 12.1 49 6.6 SSW 15 19 8 10 - - 0.0
07/10:00pm 23.7 21.8 11.7 47 7.0 S 13 17 7 9 - - 0.0
07/09:30pm 24.7 22.7 11.6 44 7.6 SSE 13 20 7 11 - - 0.0
07/09:00pm 25.2 22.9 11.7 43 7.9 SSE 15 24 8 13 - - 0.0
07/08:30pm 25.2 23.9 11.4 42 8.0 S 9 15 5 8 - - 0.0
07/08:00pm 26.8 24.3 10.9 37 9.2 SSW 15 24 8 13 - - 0.0
07/07:30pm 28.0 24.2 9.8 32 10.4 SW 20 30 11 16 - - 0.0
07/07:00pm 28.9 24.8 8.6 28 11.5 SW 20 28 11 15 - - 0.0
07/06:30pm 29.0 24.2 8.7 28 11.5 SW 24 37 13 20 - - 0.0
07/06:00pm 29.2 24.0 8.8 28 11.6 WSW 26 37 14 20 - - 0.0

Other Formats:

Comma delimited format used in spreadsheet applications
http://www.bom.gov.au/fwo/IDV60801/IDV60801.94881.axf

JavaScript Object Notation format (JSON) in row-major order
http://www.bom.gov.au/fwo/IDV60801/IDV60801.94881.json